Weather History for PALH - March, 2013

Change the Weather History Date:

Thursday, March 7, 2013

  Actual Average Record
Temperature  
Mean Temperature 30 °F -  
Max Temperature 37 °F 29 °F 43 °F (2005)
Min Temperature 24 °F 14 °F 1 °F (2002)
Degree Days  
Heating Degree Days 34    
Moisture  
Dew Point 22 °F    
Average Humidity 71    
Maximum Humidity 85    
Minimum Humidity 57    
Precipitation  
Precipitation 0.00 in - - ()
Sea Level Pressure  
Sea Level Pressure 29.63 in    
Wind  
Wind Speed 5 mph (NNW)    
Max Wind Speed 21 mph    
Max Gust Speed 29 mph    
Visibility 10 miles    
Events      
Averages and records for this station are not official NWS values.
T = Trace of Precipitation, MM = Missing Value Source: NWS Daily Summary

Daily Weather History Graph

Daily Weather History Graph

Search for Another Location

Airport or City:

Trip Planner

Search our weather history database for the weather conditions in past years. The results will help you decide how hot, cold, wet, or windy it might be!

Date:

Astronomy

Mar. 07, 2013 Rise Set
Actual Time 7:40 AM AKST 6:42 PM AKST
Civil Twilight 6:57 AM AKST 7:25 PM AKST
Nautical Twilight 6:07 AM AKST 8:15 PM AKST
Astronomical Twilight 5:15 AM AKST 9:08 PM AKST
Moon 5:49 AM AKST (3/7) 1:44 PM AKST (3/7)
Length of Visible Light 12h 27m
Length of Day
11h 01m
Waning Crescent, 19% of the Moon is Illuminated
Mar 7
Waning Crescent
Mar 11
New
Mar 19
First Quarter
Mar 27
Full
Apr 2
Last Quarter

Hourly Weather History & Observations

Time (AKST) Temp. Windchill Dew Point Humidity Pressure Visibility Wind Dir Wind Speed Gust Speed Precip Events Conditions
12:53 AM 24.1 °F 19.7 °F 19.0 °F 81% 29.84 in 10.0 mi NE 3.5 mph - N/A   Overcast
1:53 AM 26.1 °F 21.9 °F 21.0 °F 81% 29.83 in 10.0 mi WNW 3.5 mph - N/A   Mostly Cloudy
3:53 AM 27.0 °F 21.6 °F 21.9 °F 81% 29.76 in 10.0 mi WNW 4.6 mph - N/A   Clear
4:53 AM 28.0 °F 22.8 °F 21.9 °F 78% 29.74 in 10.0 mi North 4.6 mph - N/A   Clear
5:53 AM 27.0 °F - 23.0 °F 85% 29.74 in 10.0 mi Calm Calm - N/A   Mostly Cloudy
6:53 AM 28.0 °F - 23.0 °F 81% 29.72 in 10.0 mi Calm Calm - N/A   Mostly Cloudy
7:53 AM 28.0 °F 20.8 °F 21.9 °F 78% 29.67 in 10.0 mi ENE 6.9 mph - N/A   Scattered Clouds
8:53 AM 28.0 °F 20.0 °F 21.9 °F 78% 29.67 in 10.0 mi NW 8.1 mph - N/A   Mostly Cloudy
9:53 AM 28.9 °F 25.2 °F 21.9 °F 75% 29.66 in 10.0 mi Variable 3.5 mph - N/A   Mostly Cloudy
10:53 AM 30.0 °F 24.1 °F 21.0 °F 69% 29.65 in 10.0 mi NW 5.8 mph - N/A   Clear
11:53 AM 28.9 °F - 21.9 °F 75% 29.64 in 10.0 mi Calm Calm - N/A   Partly Cloudy
12:53 PM 32.0 °F 26.4 °F 21.9 °F 66% 29.60 in 10.0 mi NNE 5.8 mph - N/A   Partly Cloudy
1:53 PM 32.0 °F 26.4 °F 23.0 °F 69% 29.58 in 10.0 mi WNW 5.8 mph - N/A   Clear
2:53 PM 34.0 °F 25.5 °F 21.9 °F 61% 29.55 in 10.0 mi NNW 11.5 mph - N/A   Mostly Cloudy
3:53 PM 34.0 °F - 23.0 °F 64% 29.55 in 10.0 mi Calm Calm - N/A   Overcast
4:53 PM 34.0 °F 26.6 °F 23.0 °F 64% 29.55 in 10.0 mi NW 9.2 mph - N/A   Overcast
5:53 PM 34.0 °F 26.6 °F 23.0 °F 64% 29.56 in 10.0 mi NNW 9.2 mph - N/A   Overcast
6:53 PM 35.1 °F - 21.9 °F 59% 29.55 in 10.0 mi Calm Calm - N/A   Overcast
7:53 PM 37.0 °F 32.4 °F 23.0 °F 57% 29.55 in 10.0 mi Variable 5.8 mph - N/A   Overcast
8:53 PM 35.1 °F 31.0 °F 25.0 °F 67% 29.53 in 10.0 mi West 4.6 mph - 0.00 in   Partly Cloudy
9:53 PM 36.0 °F 25.0 °F 21.9 °F 57% 29.52 in 10.0 mi WNW 20.7 mph 28.8 mph N/A   Partly Cloudy
10:53 PM 35.1 °F 26.9 °F 25.0 °F 67% 29.53 in 10.0 mi North 11.5 mph 20.7 mph N/A   Clear
11:53 PM 33.1 °F 24.9 °F 24.1 °F 70% 29.56 in 10.0 mi NNW 10.4 mph - N/A   Clear